This is the latest recevied weather packets stored in our database for station/object N6RDS. If no packets are shown the sender has not sent any weather packets the latest 10 day(s).
| Time | Temp. | Humidity | Pressure | Rain* | Wind** | Luminosity | Snow |
|---|---|---|---|---|---|---|---|
| 1777596954 | 15.56° C | 25% | 1019.9 hPa | 0 mm | - | 44 W/m² | - |
| 1777596651 | 15.56° C | 25% | 1020 hPa | 0 mm | - | 45 W/m² | - |
| 1777596348 | 15.56° C | 24% | 1020.1 hPa | 0 mm | - | 56 W/m² | - |
| 1777596045 | 15.56° C | 25% | 1019.7 hPa | 0 mm | - | 56 W/m² | - |
| 1777595740 | 16.11° C | 25% | 1020.1 hPa | 0 mm | - | 64 W/m² | - |
| 1777595435 | 16.11° C | 25% | 1020 hPa | 0 mm | - | 67 W/m² | - |
| 1777595132 | 16.11° C | 25% | 1019.6 hPa | 0 mm | - | 65 W/m² | - |
| 1777594828 | 16.11° C | 25% | 1019.7 hPa | 0 mm | - | 61 W/m² | - |
| 1777594524 | 16.11° C | 24% | 1019.9 hPa | 0 mm | - | 64 W/m² | - |
| 1777594221 | 16.11° C | 24% | 1019.9 hPa | 0 mm | - | 66 W/m² | - |
| 1777593917 | 16.11° C | 25% | 1019.7 hPa | 0 mm | - | 54 W/m² | - |
| 1777593613 | 16.11° C | 25% | 1019.9 hPa | 0 mm | - | 52 W/m² | - |
| 1777593309 | 16.11° C | 25% | 1019.7 hPa | 0 mm | - | 55 W/m² | - |
| 1777593004 | 16.67° C | 24% | 1019.5 hPa | 0 mm | - | 63 W/m² | - |
| 1777592698 | 17.22° C | 24% | 1019.6 hPa | 0 mm | - | 68 W/m² | - |
| 1777592394 | 17.22° C | 25% | 1019.6 hPa | 0 mm | - | 87 W/m² | - |
| 1777592089 | 17.78° C | 24% | 1019.5 hPa | 0 mm | - | 105 W/m² | - |
| 1777591787 | 17.22° C | 24% | 1019.6 hPa | 0 mm | - | 111 W/m² | - |
| 1777591482 | 17.22° C | 25% | 1019.4 hPa | 0 mm | - | 169 W/m² | - |
| 1777591178 | 17.22° C | 24% | 1019.6 hPa | 0 mm | - | 113 W/m² | - |
| 1777590872 | 17.78° C | 24% | 1019.7 hPa | 0 mm | - | 114 W/m² | - |
| 1777590570 | 18.33° C | 24% | 1019.5 hPa | 0 mm | - | 112 W/m² | - |
| 1777590260 | 18.33° C | 24% | 1019.6 hPa | 0 mm | - | 241 W/m² | - |
| 1777589958 | 18.33° C | 24% | 1019.5 hPa | 0 mm | - | 298 W/m² | - |
| 1777589654 | 17.78° C | 25% | 1019.6 hPa | 0 mm | - | 127 W/m² | - |
* Rain latest hour (hover to see other rain measurements)
** Current wind speed in m/s (hover to see current wind gust speed)